Weather reports worldwide

Advertisment
Tortosa, Spain (8238): temperature & dewpoint: 14.01.2021 13:00:00 - 20.01.2021 13:00:00 (CET)Tortosa, Spain (8238): wind speed: 14.01.2021 13:00:00 - 20.01.2021 13:00:00 (CET)Tortosa, Spain (8238): wind direction: 14.01.2021 13:00:00 - 20.01.2021 13:00:00 (CET)Tortosa, Spain (8238): reduced air pressure: 14.01.2021 13:00:00 - 20.01.2021 13:00:00 (CET)Tortosa, Spain (8238): visibility: 14.01.2021 13:00:00 - 20.01.2021 13:00:00 (CET)Tortosa, Spain (8238): precipitation: 14.01.2021 13:00:00 - 20.01.2021 13:00:00 (CET)
Date & Time tt [°C] td [°C] ff [km/h] ff [kn] dd ppp [hPa] vv [km] rr [mm]
20.01.2021 13:00:00 - - - - - - - -
20.01.2021 12:00:00 8,9 7,3 4 2 N 1014,7 6 0,0
20.01.2021 11:00:00 7,8 6,4 2 1 SSE 1015,1 8 0,0
20.01.2021 10:00:00 6,5 5,9 2 1 NNE 1015,1 8 -
20.01.2021 09:00:00 5,4 4,5 2 1 E 1015,5 9 0,0
20.01.2021 08:00:00 4,9 4,5 4 2 ENE 1015,8 11 0,0
20.01.2021 07:00:00 4,6 4,2 2 1 E 1016,2 8 -
20.01.2021 06:00:00 4,2 3,6 4 2 NNW 1016,6 8 0,0
20.01.2021 05:00:00 4,2 3,3 2 1 SW 1017,4 10 0,0
20.01.2021 04:00:00 4,4 4,0 4 2 N 1018,1 10 -
20.01.2021 03:00:00 4,0 3,3 2 1 NE 1018,8 9 0,0
20.01.2021 02:00:00 3,7 3,4 8 4 NNW 1019,3 - 0,0
20.01.2021 01:00:00 4,2 3,3 2 1 N 1020,0 6 -
20.01.2021 00:00:00 4,5 3,6 5 3 NW 1020,6 6 0,0
19.01.2021 23:00:00 5,5 4,6 4 2 NNW 1021,2 9 0,0
19.01.2021 22:00:00 6,6 5,1 8 4 NW 1021,5 12 -
19.01.2021 21:00:00 8,2 6,5 4 2 SSW 1021,9 20 0,0
19.01.2021 20:00:00 8,5 6,6 8 4 SW 1022,3 17 0,0
19.01.2021 19:00:00 9,9 6,8 5 3 S 1022,0 12 -
19.01.2021 18:00:00 11,3 7,2 4 2 SE 1021,8 14 0,0
19.01.2021 17:00:00 12,6 8,3 9 5 SE 1022,0 20 0,0
19.01.2021 16:00:00 14,7 8,6 9 5 SE 1022,3 10 -
19.01.2021 15:00:00 15,8 8,8 11 6 SSE 1022,5 18 0,0
19.01.2021 14:00:00 15,8 6,0 5 3 SE 1023,4 20 0,0
19.01.2021 13:00:00 13,9 5,8 4 2 NW 1024,6 8 -
19.01.2021 12:00:00 12,0 5,8 2 1 N 1025,9 20 0,0
19.01.2021 11:00:00 8,8 5,0 4 2 N 1026,3 19 0,0
19.01.2021 10:00:00 6,0 4,8 4 2 N 1026,2 7 -
19.01.2021 09:00:00 2,7 2,1 5 3 N 1026,2 20 0,0
19.01.2021 08:00:00 2,7 2,3 5 3 N 1026,3 19 0,0
19.01.2021 07:00:00 3,1 2,5 9 5 NNW 1026,2 12 -
19.01.2021 06:00:00 2,9 2,3 4 2 N 1026,1 19 0,0
19.01.2021 05:00:00 3,2 2,6 5 3 NNW 1026,2 20 0,0
19.01.2021 04:00:00 3,5 2,9 5 3 N 1026,6 19 -
19.01.2021 03:00:00 3,8 2,8 2 1 NNW 1027,0 17 0,0
19.01.2021 02:00:00 4,4 3,5 4 2 N 1027,3 16 0,0
19.01.2021 01:00:00 5,1 4,1 2 1 N 1027,9 15 -
19.01.2021 00:00:00 5,8 4,8 2 1 WSW 1028,1 16 0,0
18.01.2021 23:00:00 6,4 5,0 8 4 N 1027,9 19 0,0
18.01.2021 22:00:00 7,5 5,5 4 2 N 1027,7 18 -
18.01.2021 21:00:00 8,8 6,2 8 4 NNW 1027,7 16 0,0
18.01.2021 20:00:00 10,4 7,8 5 3 SSE 1027,6 18 0,0
18.01.2021 19:00:00 11,5 7,2 5 3 S 1027,0 15 -
18.01.2021 18:00:00 13,2 6,1 5 3 S 1026,5 20 0,0
18.01.2021 17:00:00 16,0 6,4 8 4 SSE 1025,8 20 0,0
18.01.2021 16:00:00 18,1 5,6 4 2 S 1025,5 10 -
18.01.2021 15:00:00 17,7 6,2 5 3 SSE 1025,5 20 0,0
18.01.2021 14:00:00 17,1 5,1 5 3 E 1026,1 20 0,0
18.01.2021 13:00:00 16,6 5,5 5 3 ESE 1027,1 10 -
18.01.2021 12:00:00 15,8 6,5 8 4 ESE 1027,8 20 0,0
18.01.2021 11:00:00 14,1 8,1 5 3 S 1028,3 18 0,0
18.01.2021 10:00:00 10,7 7,6 2 1 ENE 1028,2 9 -
18.01.2021 09:00:00 8,3 7,2 4 2 SE 1027,7 19 0,0
18.01.2021 08:00:00 8,1 6,1 5 3 NE 1027,3 20 0,0
18.01.2021 07:00:00 8,5 5,6 5 3 NE 1026,9 15 -
18.01.2021 06:00:00 8,9 5,5 5 3 N 1026,7 20 0,0
18.01.2021 05:00:00 9,9 5,1 9 5 SSE 1026,3 20 0,0
18.01.2021 04:00:00 12,3 4,0 9 5 W 1025,8 20 -
18.01.2021 03:00:00 12,2 4,7 11 6 NNW 1025,7 20 0,0
18.01.2021 02:00:00 12,9 5,3 9 5 NNW 1025,9 20 0,0
18.01.2021 01:00:00 13,3 5,4 9 5 NW 1026,1 20 -
18.01.2021 00:00:00 13,6 5,7 13 7 N 1025,6 20 0,0
17.01.2021 23:00:00 14,4 6,0 24 13 NNW 1024,3 20 0,0
17.01.2021 22:00:00 14,2 6,0 18 10 NNW 1024,4 20 -
17.01.2021 21:00:00 14,5 5,8 15 8 NNW 1024,2 20 0,0
17.01.2021 20:00:00 15,3 5,5 22 12 WNW 1023,7 20 0,0
17.01.2021 19:00:00 15,9 5,2 26 14 NW 1022,8 20 -
17.01.2021 18:00:00 16,0 4,7 18 10 NW 1022,4 20 0,0
17.01.2021 17:00:00 17,7 4,6 22 12 WNW 1022,0 20 0,0
17.01.2021 16:00:00 18,8 4,5 16 9 WNW 1022,2 20 -
17.01.2021 15:00:00 19,5 4,0 13 7 WNW 1022,1 20 0,0
17.01.2021 14:00:00 19,5 3,2 21 11 W 1022,8 20 0,0
17.01.2021 13:00:00 19,0 2,3 21 11 W 1023,8 15 -
17.01.2021 12:00:00 18,3 0,4 22 12 WNW 1024,9 20 0,0
17.01.2021 11:00:00 17,4 -0,8 24 13 WNW 1025,2 20 0,0
17.01.2021 10:00:00 16,4 -2,2 22 12 WNW 1024,8 15 -
17.01.2021 09:00:00 14,9 -4,0 18 10 WNW 1024,3 20 0,0
17.01.2021 08:00:00 14,7 -6,8 16 9 NW 1024,4 20 0,0
17.01.2021 07:00:00 15,1 -7,7 28 15 NW 1023,9 15 -
17.01.2021 06:00:00 14,9 -7,3 18 10 NW 1024,0 20 0,0
17.01.2021 05:00:00 15,0 -6,6 18 10 NW 1024,1 20 0,0
17.01.2021 04:00:00 13,4 -7,9 15 8 NW 1024,4 20 -
17.01.2021 03:00:00 11,4 -5,6 9 5 N 1025,1 20 0,0
17.01.2021 02:00:00 7,2 -1,0 9 5 N 1025,5 20 0,0
17.01.2021 01:00:00 6,5 -1,7 8 4 W 1026,0 20 -
17.01.2021 00:00:00 5,7 2,2 5 3 SE 1026,6 20 0,0
16.01.2021 23:00:00 6,1 2,5 8 4 S 1026,6 20 0,0
16.01.2021 22:00:00 7,1 2,6 4 2 S 1026,6 20 -
16.01.2021 21:00:00 8,0 2,7 5 3 SW 1026,4 20 0,0
16.01.2021 20:00:00 9,5 2,6 5 3 SSW 1026,4 20 0,0
16.01.2021 19:00:00 10,6 1,9 5 3 SSW 1026,1 20 -
16.01.2021 18:00:00 12,4 -1,5 4 2 W 1025,7 20 0,0
16.01.2021 17:00:00 14,3 -1,8 16 9 WNW 1025,4 20 0,0
16.01.2021 16:00:00 17,2 1,2 4 2 ESE 1025,0 12 -
16.01.2021 15:00:00 15,9 0,8 11 6 WNW 1024,9 20 0,0
16.01.2021 14:00:00 15,0 1,1 16 9 WNW 1025,3 20 0,0
16.01.2021 13:00:00 13,9 0,5 21 11 WNW 1025,7 10 -
16.01.2021 12:00:00 13,2 0,6 18 10 NW 1026,3 20 0,0
16.01.2021 11:00:00 11,6 0,4 31 17 WNW 1026,6 20 0,0
16.01.2021 10:00:00 11,1 0,5 18 10 NW 1025,7 8 -
16.01.2021 09:00:00 9,9 0,2 21 11 NW 1025,0 20 0,0
16.01.2021 08:00:00 9,5 0,1 15 8 NNW 1024,6 20 0,0
16.01.2021 07:00:00 9,3 1,0 15 8 NNW 1024,1 20 -
16.01.2021 06:00:00 9,3 1,2 18 10 NNW 1023,9 20 0,0
16.01.2021 05:00:00 9,5 0,9 26 14 NNW 1023,0 20 0,0
16.01.2021 04:00:00 9,6 1,0 22 12 NNW 1022,7 20 -
16.01.2021 03:00:00 9,3 1,4 21 11 N 1022,4 20 0,0
16.01.2021 02:00:00 9,5 1,1 21 11 N 1021,7 20 0,0
16.01.2021 01:00:00 9,6 1,0 15 8 N 1022,4 20 -
16.01.2021 00:00:00 10,1 1,2 28 15 WNW 1022,3 20 0,0
15.01.2021 23:00:00 10,1 1,5 21 11 NNW 1022,6 20 0,0
15.01.2021 22:00:00 10,3 1,6 21 11 N 1023,0 20 -
15.01.2021 21:00:00 10,6 1,9 16 9 NNW 1022,5 20 0,0
15.01.2021 20:00:00 11,0 1,8 21 11 NW 1022,4 20 0,0
15.01.2021 19:00:00 11,5 2,2 21 11 WNW 1022,8 20 -
15.01.2021 18:00:00 12,1 2,5 24 13 NW 1022,0 20 0,0
15.01.2021 17:00:00 13,0 2,5 28 15 NW 1021,3 20 0,0
15.01.2021 16:00:00 13,7 2,9 21 11 NW 1022,1 15 -
15.01.2021 15:00:00 12,3 2,4 22 12 NW 1022,2 20 0,0
15.01.2021 14:00:00 14,0 2,9 22 12 NNW 1022,2 20 0,0
15.01.2021 13:00:00 12,4 2,8 24 13 NNW 1022,7 15 -
15.01.2021 12:00:00 13,1 2,6 22 12 NW 1023,8 20 0,0
15.01.2021 11:00:00 11,3 2,3 24 13 NW 1023,9 20 0,0
15.01.2021 10:00:00 11,7 2,2 24 13 NW 1023,5 10 -
15.01.2021 09:00:00 11,4 2,1 21 11 NNW 1022,8 20 0,0
15.01.2021 08:00:00 11,3 2,1 22 12 NNW 1022,8 20 0,0
15.01.2021 07:00:00 10,9 1,7 18 10 NW 1022,5 15 -
15.01.2021 06:00:00 10,9 1,7 21 11 NW 1022,4 20 0,0
15.01.2021 05:00:00 11,4 2,1 26 14 NW 1022,4 20 0,0
15.01.2021 04:00:00 11,6 2,6 24 13 NNW 1022,2 20 -
15.01.2021 03:00:00 - - - - - - - -
15.01.2021 02:00:00 - - - - - - - -
15.01.2021 01:00:00 12,8 4,2 26 14 NNW 1022,2 20 -
15.01.2021 00:00:00 12,6 4,8 24 13 NW 1021,8 20 0,0
14.01.2021 23:00:00 12,7 4,9 29 16 NW 1022,0 20 0,0
14.01.2021 22:00:00 12,3 4,3 21 11 NNW 1022,0 20 -
14.01.2021 21:00:00 11,6 3,6 18 10 N 1022,0 20 0,0
14.01.2021 20:00:00 11,6 2,1 16 9 NNW 1022,0 20 0,0
14.01.2021 19:00:00 11,6 1,2 21 11 NW 1022,1 20 -
14.01.2021 18:00:00 12,4 0,2 15 8 NW 1022,6 20 0,0
14.01.2021 17:00:00 14,0 -0,5 22 12 NW 1021,5 20 0,0
14.01.2021 16:00:00 15,1 1,2 15 8 WNW 1021,6 8 -
14.01.2021 15:00:00 13,8 1,1 22 12 NW 1021,6 20 0,0
14.01.2021 14:00:00 13,8 1,7 26 14 NW 1022,4 20 0,0
14.01.2021 13:00:00 14,4 1,6 21 11 WNW 1023,5 8 -

tt = temperature
td = dewpoint
ff = wind speed
dd = wind direction
ppp = reduced air pressure
vv = visibility
rr = precipitation

Next stations